Terminal Aerodrome Forecast
Issued by NWS Wilmington, NC

Home | Current Version | Previous Version | Text Only | Print | Product List | Glossary On
Versions: 1 2 3 4 5 6 7 8 9 10 11 12 13 14 15 16 17 18 19 20 21 22
208
FTUS42 KILM 180540
TAFMYR
TAF
KMYR 180540Z 1806/1906 29004KT 5SM BR OVC005
      TEMPO 1806/1810 1SM BR OVC002
     FM181500 04014KT P6SM BKN050 BKN250
     FM181800 09014G20KT P6SM SCT050 SCT250
     FM190100 07010KT P6SM BKN015 OVC050=

USA.gov is the U.S. government's official web portal to all federal, state and local government web resources and services.